Regional Weather Roundup
Issued by NWS

Home | Current Version | Previous Version | Graphics & Text | Print | Product List | Glossary On
Versions: 1 2 3 4 5 6 7 8 9 10 11 12 13 14 15 16 17 18 19 20 21 22 23 24 25 26 27 28 29 30 31 32 33 34 35 36 37 38 39 40 41 42 43 44 45 46 47 48 49 50
000
ASUS45 KBOI 291710
RWRID

IDAHO REGIONAL WEATHER ROUNDUP
NATIONAL WEATHER SERVICE BOISE ID
1100 AM MDT WED JUL 29 2015

NOTE: "FAIR" INDICATES FEW OR NO CLOUDS BELOW 12000 FEET
WITH NO SIGNIFICANT WEATHER AND/OR OBSTRUCTIONS TO VISIBILITY

IDZ012-014-291800-
SOUTHWEST IDAHO


CITY           SKY/WX    TMP DP  RH WIND       PRES   REMARKS
BOISE          SUNNY     75  34  22 S6        30.26S
CALDWELL       SUNNY     72  37  28 CALM      30.27S
MOUNTAIN HOME  SUNNY     73  33  22 SE12      30.27S
$$

IDZ016-017-291800-
SOUTHCENTRAL IDAHO


CITY           SKY/WX    TMP DP  RH WIND       PRES   REMARKS
BURLEY         SUNNY     68  38  33 NE8       30.31F
JEROME         SUNNY     71  36  27 VRB7      30.31F
TWIN FALLS     SUNNY     72  40  31 N10       30.29F
$$

IDZ019>023-291800-
SOUTHEAST IDAHO


CITY           SKY/WX    TMP DP  RH WIND       PRES   REMARKS
IDAHO FALLS    SUNNY     68  35  29 NE5       30.36F
POCATELLO      SUNNY     69  38  32 N6        30.35F
REXBURG        NOT AVBL
$$

IDZ006-010-011-018-031-032-291800-
CENTRAL IDAHO MOUNTAINS


CITY           SKY/WX    TMP DP  RH WIND       PRES   REMARKS
MCCALL         SUNNY     64  41  42 S5        30.33F
HAILEY         SUNNY     64  41  42 SE9       30.38S
STANLEY          N/A     59  36  42 N3        30.43F
SALMON         SUNNY     61  43  51 CALM      30.34F
CHALLIS        SUNNY     62  41  46 VRB5      30.37F
$$

IDZ002-004-006-007-026-291800-
NORTHERN IDAHO


CITY           SKY/WX    TMP DP  RH WIND       PRES   REMARKS
LEWISTON       SUNNY     73  42  32 CALM      30.21F
LOWELL           N/A     64  47  53 N3        30.26F
COEUR D`ALENE  SUNNY     72  45  37 S8        30.22F
MULLAN PASS    SUNNY     59  37  44 VRB3      30.37S
$$


USA.gov is the U.S. government's official web portal to all federal, state and local government web resources and services.